Theta_e
324 324 324 324 324 324 323 323 324 324 324 324 323 323 323 323 323 322 323 323 323 323 323 323 322 323 323 323 323 322 321 321 321 321 320 320 320 319 319 319 319 319
324 324 322 324 323 323 324 324 324 324 324 325 325 324 324 323 323 323 323 323 322 323 323 323 323 323 323 323 323 322 321 321 320 321 320 319 319 319 320 320 320 321
325 324 323 323 323 324 324 325 324 325 325 325 325 324 324 324 323 323 323 323 322 322 323 323 323 322 323 323 323 322 321 320 320 319 319 319 319 319 320 321 321 320
325 325 324 324 324 324 324 324 324 324 324 324 324 324 324 324 324 323 323 319 322 322 323 323 323 323 322 323 322 322 322 321 321 320 319 319 319 320 320 321 320 320
325 325 325 325 324 324 324 324 324 324 324 325 324 324 323 323 323 323 323 322 322 322 322 322 322 322 322 322 322 321 321 321 322 321 320 320 321 321 321 320 320 319
324 325 325 325 324 323 323 324 324 324 324 324 324 323 323 323 323 323 322 322 322 322 321 322 322 322 322 322 322 322 322 322 322 322 321 320 320 321 321 320 319 318
324 324 324 324 324 324 323 323 324 323 324 324 323 323 323 323 323 323 322 322 322 321 321 321 321 322 322 322 321 321 322 322 321 321 320 320 319 319 320 320 319 318
322 323 324 324 323 323 322 323 323 323 323 322 323 323 323 323 323 323 322 322 321 321 321 321 321 321 321 321 320 320 321 322 321 320 319 319 319 318 319 319 319 318
321 321 322 322 322 322 321 321 321 321 321 322 322 322 322 323 322 322 322 322 321 321 321 321 321 321 321 320 320 320 320 320 321 319 319 318 317 318 318 318 317 317
319 320 319 320 319 320 319 320 320 320 320 321 322 321 321 321 322 322 321 321 321 320 320 320 320 319 319 319 320 319 319 320 319 319 319 318 318 318 317 317 317 317
315 316 317 316 318 318 317 318 318 318 317 319 319 319 320 318 318 319 319 320 320 320 320 319 319 319 319 319 319 318 319 319 319 319 319 318 318 318 311 317 317 317
313 313 315 316 317 317 316 316 316 315 316 316 317 319 317 316 317 316 318 318 318 319 319 318 317 317 318 318 318 318 318 319 319 318 318 319 318 318 318 317 317 317
312 313 315 315 314 314 314 313 314 312 313 314 312 314 314 314 313 314 314 315 316 316 317 317 317 316 317 317 318 319 319 318 318 318 318 318 318 318 318 318 318 318
312 311 309 311 310 309 311 310 311 311 312 311 310 313 313 313 314 314 312 313 314 314 314 313 313 314 315 317 317 318 318 318 318 317 317 317 317 318 318 317 318 317
304 305 307 310 307 309 310 311 311 311 311 311 311 311 312 312 311 311 310 311 311 310 310 311 314 315 316 317 317 318 319 318 318 317 316 316 316 316 317 317 317 317
302 304 307 305 308 309 310 309 309 309 309 309 310 309 309 309 309 309 311 312 313 313 313 313 315 317 308 306 308 317 318 318 317 316 316 315 314 314 315 315 316 317
303 305 304 306 307 305 304 305 307 305 305 306 305 306 309 309 311 313 313 312 313 314 315 315 316 316 305 305 305 306 313 316 316 316 315 314 314 314 313 312 314 315
303 303 304 304 303 305 304 303 301 302 304 304 303 302 306 305 309 314 315 313 314 313 314 314 315 306 305 304 303 304 304 313 316 315 314 314 313 313 314 313 311 311
299 301 301 301 301 300 300 300 301 304 305 306 308 307 301 304 308 309 311 312 311 312 312 312 312 305 304 303 302 302 302 304 314 314 313 313 313 313 312 312 311 308
297 298 298 297 297 297 298 297 299 303 302 303 303 301 303 305 303 305 307 308 309 310 310 310 310 304 302 302 301 301 301 302 310 313 313 313 312 312 311 311 311 308
295 295 295 295 294 294 296 296 297 294 294 296 298 298 301 303 303 301 303 303 305 306 307 308 310 302 301 300 300 300 301 300 307 310 311 312 312 311 311 311 311 309
295 294 293 293 292 292 293 293 292 293 294 291 293 294 295 295 296 298 300 300 301 302 303 305 307 301 300 299 299 300 300 302 305 307 308 309 310 310 310 310 310 308
294 294 293 293 292 293 293 293 292 292 290 289 292 292 293 294 296 296 297 297 296 297 300 302 302 299 298 298 298 299 299 302 303 304 305 307 308 309 310 308 306 306
294 294 293 292 291 292 293 292 290 290 291 290 291 291 292 293 295 295 296 296 296 296 297 298 300 297 297 297 297 297 298 302 302 302 303 303 305 307 308 307 303 295
293 292 292 291 290 290 290 290 290 291 289 288 289 290 291 290 289 292 293 293 294 295 291 295 297 295 295 296 296 297 296 301 301 301 301 302 303 304 303 301 300 295
293 293 291 291 289 289 289 290 289 289 289 288 288 289 289 288 289 289 290 290 290 291 293 294 295 295 292 295 295 296 296 298 300 299 299 300 301 301 301 298 298 298
Wind_Speed
15 13 14 14 14 13 13 12 11 12 13 12 13 13 14 13 11 14 15 14 14 14 13 13 13 13 11 11 12 11 10 11 10 9 10 10 10 11 11 11 10 10
17 16 13 12 11 11 11 12 13 13 14 13 13 12 11 11 13 14 15 15 14 14 13 13 13 14 13 11 11 12 10 9 11 7 9 11 10 9 11 12 12 10
15 14 15 15 14 14 14 13 12 12 12 12 11 11 10 11 12 13 13 14 14 14 13 13 13 13 13 12 11 11 11 10 11 8 8 10 9 10 10 10 10 12
15 15 15 15 14 13 12 11 11 11 11 10 12 12 11 10 11 12 12 14 13 13 13 13 14 13 12 12 11 10 11 11 10 8 8 8 8 10 10 9 10 10
15 14 13 13 12 12 11 12 14 13 13 13 10 10 10 10 11 12 12 12 13 13 12 13 12 12 12 11 11 11 10 10 11 10 10 10 9 9 10 9 11 12
11 12 12 12 12 12 12 13 14 13 13 11 12 9 10 11 11 12 12 12 12 12 12 12 12 12 11 12 11 11 11 10 10 11 12 11 10 10 9 10 12 13
13 12 13 12 12 13 14 13 12 12 12 11 7 10 10 11 11 12 12 12 12 12 12 12 12 12 11 11 12 12 11 11 11 12 13 12 10 11 11 11 12 13
12 10 11 11 12 12 13 13 12 11 10 8 11 11 10 12 12 10 10 11 11 12 12 12 12 13 12 11 12 12 12 10 11 13 12 12 11 12 13 11 12 12
9 9 9 11 12 11 12 12 10 10 9 11 11 10 9 11 11 10 10 11 11 11 12 12 13 13 12 12 13 13 13 12 12 13 13 13 13 14 13 11 11 12
9 9 10 10 11 11 11 11 10 9 9 10 10 9 10 9 9 9 9 10 11 11 12 12 12 12 12 12 13 13 13 14 13 12 13 13 14 14 13 13 13 12
10 9 10 11 11 10 11 11 11 10 9 10 9 9 8 8 7 8 9 10 11 12 12 12 12 12 12 12 12 11 13 13 12 12 13 13 14 14 13 13 13 14
9 9 11 11 12 11 11 10 9 8 8 8 8 9 7 8 9 8 9 10 10 11 11 10 10 11 12 12 12 11 11 12 11 12 13 13 14 13 13 13 13 13
10 11 11 11 10 9 8 7 7 7 7 8 7 7 8 8 7 9 9 9 10 10 10 10 10 9 10 11 11 11 12 12 12 13 13 13 13 13 13 13 13 13
11 9 7 8 6 6 6 7 7 7 7 7 7 8 9 9 9 9 8 8 9 9 9 8 8 8 10 11 11 11 11 12 12 13 13 13 13 12 12 13 13 13
4 4 5 7 5 6 6 7 8 8 8 8 8 8 9 8 8 8 8 8 7 7 7 7 8 10 10 11 12 12 12 12 13 13 13 12 12 12 11 12 11 12
4 4 5 6 6 8 8 7 7 7 7 8 8 8 7 7 7 6 7 8 8 8 7 7 9 9 13 18 16 13 12 12 12 12 12 12 12 11 11 12 12 12
5 6 6 7 7 6 5 6 6 6 6 7 6 7 8 7 8 8 9 8 9 10 10 11 11 11 16 16 17 18 14 11 11 11 11 11 11 12 12 12 11 12
7 6 7 6 5 6 6 6 5 6 6 6 5 6 6 5 8 11 10 9 9 10 11 12 13 15 16 16 16 18 17 13 10 10 10 10 11 12 11 10 11 11
5 6 6 5 5 5 5 5 6 6 7 7 9 6 3 5 7 6 8 8 8 10 11 11 11 14 16 16 16 16 17 15 11 11 11 11 11 12 11 11 10 10
6 5 5 4 4 4 4 5 6 8 6 4 3 3 5 7 6 8 8 8 9 9 9 9 10 12 15 15 16 17 17 15 12 12 12 12 12 12 11 12 12 11
2 2 2 2 3 4 5 5 6 5 4 4 4 5 7 9 8 8 9 8 8 8 9 11 12 13 13 14 16 17 17 14 11 12 12 12 11 11 12 13 12 12
1 2 3 3 4 4 5 6 5 6 7 5 5 5 5 5 6 6 7 7 7 7 9 12 11 13 13 13 15 15 16 12 11 12 12 12 12 12 11 11 11 11
3 4 5 5 5 5 7 7 7 7 7 5 6 6 7 7 8 8 7 7 7 8 10 11 10 11 12 13 14 15 13 10 11 11 11 12 13 12 13 11 10 11
4 5 5 5 4 6 6 5 4 3 4 4 6 6 8 9 8 8 8 8 9 10 10 11 12 11 13 13 14 14 13 11 10 10 11 11 12 13 12 10 11 16
2 4 4 4 4 4 4 4 4 5 3 3 4 4 6 4 4 6 6 7 7 9 10 12 11 10 13 14 14 14 12 10 9 9 11 12 12 13 10 8 9 12
1 1 1 2 3 3 3 4 3 2 4 4 4 5 6 6 6 5 7 7 5 7 8 10 10 9 7 13 13 15 16 11 8 10 12 13 11 12 10 9 10 10
Wind_Direction
207 205 208 209 212 210 208 206 203 202 205 203 203 205 203 205 190 195 201 202 203 204 202 202 204 210 214 209 211 214 216 215 215 211 212 210 212 205 209 208 207 212
208 207 207 209 213 212 211 209 209 206 207 205 207 205 204 194 196 195 199 201 201 204 200 201 203 206 209 208 205 209 214 213 217 206 211 212 215 208 217 211 212 209
208 208 207 207 209 208 208 208 210 213 211 209 206 204 202 197 195 197 197 197 199 201 199 199 202 203 206 207 203 206 210 212 217 208 207 213 210 213 218 212 215 211
209 208 209 211 210 210 206 206 211 214 213 209 208 204 198 195 195 195 197 195 199 199 200 198 201 201 203 205 203 206 207 210 212 204 212 215 212 212 214 209 214 214
205 207 207 208 209 209 202 206 210 211 211 214 208 200 196 193 194 195 196 196 198 199 199 201 199 201 200 202 203 208 206 208 206 205 212 217 216 209 212 205 211 216
206 205 205 205 205 204 206 209 211 210 211 209 208 195 200 198 196 196 194 194 196 197 199 198 200 201 199 201 203 208 204 206 206 204 212 216 214 209 211 209 213 218
204 200 201 201 202 204 208 212 211 209 210 209 191 200 197 198 199 197 193 193 193 196 196 196 199 201 199 200 204 206 204 205 205 206 212 216 212 213 212 211 214 218
204 197 197 198 202 204 209 211 211 207 205 196 202 205 194 200 199 195 192 191 194 198 198 198 200 202 201 199 203 204 205 202 206 206 210 214 210 215 213 213 213 216
196 196 193 197 201 205 210 211 211 208 198 201 205 203 199 199 198 192 190 191 196 198 199 202 203 204 202 202 204 203 204 206 207 206 209 210 211 215 213 209 212 215
196 196 194 198 203 206 209 208 206 206 197 201 203 198 198 202 194 192 190 193 197 199 202 204 205 205 204 205 206 204 205 208 208 208 210 212 214 215 213 209 211 214
197 192 196 200 204 204 209 205 203 200 194 200 198 200 200 191 197 190 193 195 201 203 205 205 206 205 205 207 209 207 207 209 210 210 212 215 216 216 213 210 211 214
196 193 198 201 204 207 206 201 196 195 195 199 193 199 196 196 195 198 197 203 206 208 208 207 204 205 206 206 206 206 207 210 211 212 215 217 218 218 214 211 213 215
200 201 201 203 203 204 195 192 194 195 192 197 193 193 196 201 201 200 205 202 209 208 208 206 206 202 205 206 204 204 207 209 211 214 217 218 220 219 216 215 215 215
211 206 199 197 194 188 188 189 189 191 195 193 187 198 200 199 200 201 203 199 204 203 204 199 198 198 204 206 206 205 204 210 210 214 217 220 221 220 217 216 215 214
213 204 194 189 184 182 186 189 189 190 188 189 190 198 199 199 195 190 191 200 203 198 196 193 195 203 203 204 207 208 208 213 214 215 217 220 221 221 219 218 216 214
194 187 188 187 187 192 194 191 189 188 188 194 200 197 195 192 183 182 188 195 197 202 200 199 208 211 210 207 204 206 211 216 218 221 220 222 222 224 223 221 220 219
196 205 196 199 203 193 190 188 191 186 187 195 196 191 191 190 186 193 203 200 201 205 211 216 220 220 216 211 210 208 210 218 219 222 221 223 223 223 224 221 223 221
207 203 203 208 193 198 190 187 178 181 193 192 186 195 198 179 198 211 212 211 213 214 217 220 224 223 219 217 214 214 213 217 220 223 221 222 223 224 225 222 221 219
208 205 209 208 208 197 190 184 192 199 206 204 209 204 174 200 219 219 222 221 218 220 225 225 231 227 224 222 219 218 219 218 225 222 221 224 223 224 223 223 220 216
206 204 209 209 201 194 184 192 202 214 218 228 231 201 212 222 225 226 228 228 229 234 240 243 241 237 229 226 225 224 221 216 229 228 229 228 225 222 221 221 219 214
225 220 213 203 199 197 197 205 209 211 207 207 201 210 216 223 225 231 234 236 236 234 240 242 241 237 232 225 224 224 223 218 228 229 233 233 229 224 221 221 219 214
226 235 224 211 202 199 206 221 220 209 207 198 201 220 232 233 240 228 232 233 238 241 245 249 248 240 234 226 222 221 218 219 226 230 233 234 233 228 225 224 221 212
193 207 213 208 201 201 217 222 219 219 212 183 195 209 218 224 228 225 222 224 227 228 238 250 255 244 240 232 223 218 213 222 222 228 233 234 236 234 232 227 220 214
199 201 216 216 206 217 232 244 247 250 233 202 206 211 221 223 221 226 224 222 224 227 225 238 245 238 236 237 228 220 212 221 222 226 234 234 241 237 235 230 219 211
212 203 210 212 218 243 251 261 247 235 230 183 220 230 244 252 242 244 245 239 234 236 233 235 249 244 233 233 228 225 217 228 225 227 235 235 235 241 234 232 226 217
345 226 220 205 224 235 232 233 229 220 224 205 220 214 238 238 235 236 244 248 243 243 243 241 252 256 241 241 233 226 217 220 228 230 235 238 237 240 239 233 229 229